FW4741 Weather Reports


Display with metric or nautical units.
time (UTC)temp
F
wind
direction
speed
MPH
gust
MPH
rain 1hr
in
rain 24hr
in
rain mn
in
humidity
%
barometer
mb
20260502194103 83 77 2.0 6.0 0.00 0.00 0.00 39 1019.8
20260502193604 83 77 2.0 6.0 0.00 0.00 0.00 39 1019.9
20260502193104 83 77 2.0 6.0 0.00 0.00 0.00 39 1020.0
20260502192604 83 77 2.0 6.0 0.00 0.00 0.00 39 1020.0
20260502192104 83 77 2.0 6.0 0.00 0.00 0.00 40 1020.1
20260502191604 83 77 2.0 6.0 0.00 0.00 0.00 40 1020.1
20260502191103 82 77 2.0 6.0 0.00 0.00 0.00 39 1020.2
20260502190604 82 77 2.0 6.0 0.00 0.00 0.00 40 1020.2
20260502190104 82 77 2.0 6.0 0.00 0.00 0.00 39 1020.3
20260502185604 81 77 2.0 6.0 0.00 0.00 0.00 40 1020.3
20260502185104 81 77 2.0 6.0 0.00 0.00 0.00 41 1020.4
20260502184604 81 77 2.0 6.0 0.00 0.00 0.00 40 1020.4
20260502184104 81 77 2.0 6.0 0.00 0.00 0.00 42 1020.5
20260502183604 81 77 2.0 6.0 0.00 0.00 0.00 42 1020.5
20260502182604 81 77 2.0 6.0 0.00 0.00 0.00 43 1020.5
20260502182103 81 77 2.0 6.0 0.00 0.00 0.00 41 1020.7
20260502181603 81 77 2.0 6.0 0.00 0.00 0.00 43 1020.7
20260502181104 81 77 2.0 6.0 0.00 0.00 0.00 42 1020.8
20260502180604 81 77 2.0 6.0 0.00 0.00 0.00 42 1020.7
20260502180103 81 77 2.0 6.0 0.00 0.00 0.00 42 1020.7
20260502170104 79 77 2.0 6.0 0.00 0.00 0.00 39 1021.3
20260502164104 78 77 2.0 6.0 0.00 0.00 0.00 39 1021.6
20260502163103 78 77 2.0 6.0 0.00 0.00 0.00 40 1021.6
20260502162604 78 77 2.0 6.0 0.00 0.00 0.00 36 1021.6
20260502162104 78 77 2.0 6.0 0.00 0.00 0.00 34 1021.7
20260502161603 77 77 2.0 6.0 0.00 0.00 0.00 35 1021.7
20260502161104 76 77 2.0 6.0 0.00 0.00 0.00 36 1021.8
20260502160604 76 77 2.0 6.0 0.00 0.00 0.00 39 1021.8
20260502152104 71 77 2.0 6.0 0.00 0.00 0.00 47 1021.9
20260502151603 71 77 2.0 6.0 0.00 0.00 0.00 49 1021.8
20260502151104 70 77 2.0 6.0 0.00 0.00 0.00 48 1021.8
20260502150603 69 77 2.0 6.0 0.00 0.00 0.00 51 1021.8
20260502150103 68 77 2.0 6.0 0.00 0.00 0.00 50 1021.9
20260502140104 62 77 2.0 6.0 0.00 0.00 0.00 60 1021.8
20260502130103 58 77 2.0 6.0 0.00 0.00 0.00 67 1021.4
20260502123604 57 77 2.0 6.0 0.00 0.00 0.00 69 1021.2
20260502123104 57 77 2.0 6.0 0.00 0.00 0.00 69 1021.1
20260502122604 56 77 2.0 6.0 0.00 0.00 0.00 70 1021.1
20260502122104 56 77 2.0 6.0 0.00 0.00 0.00 71 1021.2
20260502121603 56 77 2.0 6.0 0.00 0.00 0.00 71 1021.1
20260502121104 56 77 2.0 6.0 0.00 0.00 0.00 71 1021.1
20260502120604 56 77 2.0 6.0 0.00 0.00 0.00 71 1021.0
20260502115604 56 77 2.0 6.0 0.00 0.00 0.00 73 1021.0
20260502115104 57 77 2.0 6.0 0.00 0.00 0.00 72 1021.0
20260502113604 58 77 2.0 6.0 0.00 0.00 0.00 68 1020.8
20260502113104 58 77 2.0 6.0 0.00 0.00 0.00 67 1020.8
20260502112104 58 77 2.0 6.0 0.00 0.00 0.00 67 1020.7
20260502111604 58 77 2.0 6.0 0.00 0.00 0.00 67 1020.7
20260502111104 58 77 2.0 6.0 0.00 0.00 0.00 67 1020.6
20260502110604 57 77 2.0 6.0 0.00 0.00 0.00 69 1020.6
20260502105604 57 77 2.0 6.0 0.00 0.00 0.00 71 1020.6
20260502105104 58 77 2.0 6.0 0.00 0.00 0.00 70 1020.6
20260502104604 58 77 2.0 6.0 0.00 0.00 0.00 70 1020.5
20260502103604 58 77 2.0 6.0 0.00 0.00 0.00 69 1020.5
20260502103103 58 77 2.0 6.0 0.00 0.00 0.00 69 1020.5
20260502102603 59 77 2.0 6.0 0.00 0.00 0.00 68 1020.4
20260502102104 59 77 2.0 6.0 0.00 0.00 0.00 67 1020.4
20260502101104 59 77 2.0 6.0 0.00 0.00 0.00 66 1020.3
20260502100604 59 77 2.0 6.0 0.00 0.00 0.00 67 1020.3
20260502100103 60 77 2.0 6.0 0.00 0.00 0.00 66 1020.2
20260502091104 59 77 2.0 6.0 0.00 0.00 0.00 68 1020.0
20260502090604 59 77 2.0 6.0 0.00 0.00 0.00 68 1020.0
20260502090104 60 77 2.0 6.0 0.00 0.00 0.00 68 1020.1
20260502080104 62 77 2.0 6.0 0.00 0.00 0.00 62 1020.3
20260502071104 63 77 2.0 6.0 0.00 0.00 0.00 61 1020.4
20260502070604 63 77 2.0 6.0 0.00 0.00 0.00 61 1020.4
20260502070103 63 77 2.0 6.0 0.00 0.00 0.00 60 1020.4
20260502065604 64 77 2.0 6.0 0.00 0.00 0.00 60 1020.4
20260502065104 64 77 2.0 6.0 0.00 0.00 0.00 59 1020.5
20260502064604 64 77 2.0 6.0 0.00 0.00 0.00 59 1020.4
20260502064103 64 77 2.0 6.0 0.00 0.00 0.00 59 1020.5
20260502063604 64 77 2.0 6.0 0.00 0.00 0.00 59 1020.4
20260502063104 64 77 2.0 6.0 0.00 0.00 0.00 59 1020.4
20260502062604 64 77 2.0 6.0 0.00 0.00 0.00 59 1020.5
20260502062104 64 77 2.0 6.0 0.00 0.00 0.00 60 1020.5
20260502061604 64 77 2.0 6.0 0.00 0.00 0.00 59 1020.5
20260502061104 64 77 2.0 6.0 0.00 0.00 0.00 59 1020.5
20260502060604 65 77 2.0 6.0 0.00 0.00 0.00 59 1020.5
20260502060104 65 77 2.0 6.0 0.00 0.00 0.00 58 1020.4
20260502055604 65 77 2.0 6.0 0.00 0.00 0.00 57 1020.4
20260502055103 65 77 2.0 6.0 0.00 0.00 0.00 58 1020.4
20260502054604 65 77 2.0 6.0 0.00 0.00 0.00 58 1020.4
20260502054104 65 77 2.0 6.0 0.00 0.00 0.00 58 1020.4
20260502053604 65 77 2.0 6.0 0.00 0.00 0.00 57 1020.4
20260502053103 66 77 2.0 6.0 0.00 0.00 0.00 56 1020.4
20260502052104 66 77 2.0 6.0 0.00 0.00 0.00 55 1020.3
20260502051604 65 77 2.0 6.0 0.00 0.00 0.00 57 1020.3
20260502051104 66 77 2.0 6.0 0.00 0.00 0.00 57 1020.4
20260502050604 66 77 2.0 6.0 0.00 0.00 0.00 56 1020.4
20260502050104 67 77 2.0 6.0 0.00 0.00 0.00 52 1020.3
20260502045604 66 77 2.0 6.0 0.00 0.00 0.00 53 1020.2
20260502045104 66 77 2.0 6.0 0.00 0.00 0.00 55 1020.2
20260502044604 66 77 2.0 6.0 0.00 0.00 0.00 56 1020.2
20260502044104 67 77 2.0 6.0 0.00 0.00 0.00 56 1020.2
20260502043104 68 77 2.0 6.0 0.00 0.00 0.00 53 1020.0
20260502042603 68 77 2.0 6.0 0.00 0.00 0.00 52 1020.0
20260502042104 69 77 2.0 6.0 0.00 0.00 0.00 52 1020.0
20260502041604 69 77 2.0 6.0 0.00 0.00 0.00 51 1020.0
20260502041104 69 77 2.0 6.0 0.00 0.00 0.00 50 1020.0
20260502040104 69 77 2.0 6.0 0.00 0.00 0.00 50 1019.9
20260502035604 69 77 2.0 6.0 0.00 0.00 0.00 50 1019.9
20260502035104 69 77 2.0 6.0 0.00 0.00 0.00 50 1019.9
20260502034604 69 77 2.0 6.0 0.00 0.00 0.00 50 1019.9
20260502033604 70 77 2.0 6.0 0.00 0.00 0.00 50 1019.9
20260502033104 70 77 2.0 6.0 0.00 0.00 0.00 48 1019.8
20260502032605 70 77 2.0 6.0 0.00 0.00 0.00 48 1019.8
20260502032104 70 77 2.0 6.0 0.00 0.00 0.00 49 1019.8
20260502031604 71 77 2.0 6.0 0.00 0.00 0.00 48 1019.8
20260502030604 71 77 2.0 6.0 0.00 0.00 0.00 48 1019.8
20260502030104 71 77 2.0 6.0 0.00 0.00 0.00 48 1019.7
20260502025104 71 77 2.0 6.0 0.00 0.00 0.00 47 1019.6
20260502024604 72 77 2.0 6.0 0.00 0.00 0.00 46 1019.4
20260502024104 72 77 2.0 6.0 0.00 0.00 0.00 46 1019.4
20260502023604 72 77 2.0 6.0 0.00 0.00 0.00 46 1019.3
20260502023103 73 77 2.0 6.0 0.00 0.00 0.00 45 1019.3
20260502022604 73 77 2.0 6.0 0.00 0.00 0.00 45 1019.2
20260502022104 73 77 2.0 6.0 0.00 0.00 0.00 45 1019.1
20260502021104 74 77 2.0 6.0 0.00 0.00 0.00 44 1019.0
20260502020105 74 77 2.0 6.0 0.00 0.00 0.00 44 1018.9
20260502015604 75 77 2.0 6.0 0.00 0.00 0.00 44 1018.8
20260502015105 76 77 2.0 6.0 0.00 0.00 0.00 43 1018.8
20260502014604 77 77 2.0 6.0 0.00 0.00 0.00 40 1018.7
20260502013604 78 77 2.0 6.0 0.00 0.00 0.00 38 1018.6
20260502013104 79 77 2.0 6.0 0.00 0.00 0.00 38 1018.5
20260502012604 79 77 2.0 6.0 0.00 0.00 0.00 37 1018.5
20260502012104 79 77 2.0 6.0 0.00 0.00 0.00 37 1018.5
20260502011104 79 77 2.0 6.0 0.00 0.00 0.00 37 1018.4
20260502010603 80 77 2.0 6.0 0.00 0.00 0.00 36 1018.3
20260502010104 80 77 2.0 6.0 0.00 0.00 0.00 36 1018.3
20260502005604 80 77 2.0 6.0 0.00 0.00 0.00 36 1018.2
20260502005104 80 77 2.0 6.0 0.00 0.00 0.00 36 1018.1
20260502004604 81 77 2.0 6.0 0.00 0.00 0.00 35 1018.1
20260502004104 81 77 2.0 6.0 0.00 0.00 0.00 35 1018.0
20260502003604 81 77 2.0 6.0 0.00 0.00 0.00 35 1018.0
20260502002604 82 77 2.0 6.0 0.00 0.00 0.00 34 1017.9
20260502002104 82 77 2.0 6.0 0.00 0.00 0.00 34 1017.8
20260502001603 82 77 2.0 6.0 0.00 0.00 0.00 34 1017.8
20260502001104 82 77 2.0 6.0 0.00 0.00 0.00 33 1017.8
20260502000604 82 77 2.0 6.0 0.00 0.00 0.00 33 1017.7
20260501235604 82 77 2.0 6.0 0.00 0.00 0.00 33 1017.6
20260501235104 83 77 2.0 6.0 0.00 0.00 0.00 33 1017.6
20260501234604 83 77 2.0 6.0 0.00 0.00 0.00 33 1017.6
20260501234104 83 77 2.0 6.0 0.00 0.00 0.00 32 1017.5
20260501233604 83 77 2.0 6.0 0.00 0.00 0.00 32 1017.5
20260501233104 83 77 2.0 6.0 0.00 0.00 0.00 32 1017.5
20260501232104 84 77 2.0 6.0 0.00 0.00 0.00 31 1017.5
20260501231604 84 77 2.0 6.0 0.00 0.00 0.00 32 1017.5
20260501231104 84 77 2.0 6.0 0.00 0.00 0.00 32 1017.5
20260501230604 84 77 2.0 6.0 0.00 0.00 0.00 32 1017.4
20260501230104 84 77 2.0 6.0 0.00 0.00 0.00 32 1017.4
20260501225603 84 77 2.0 6.0 0.00 0.00 0.00 31 1017.4
20260501225104 84 77 2.0 6.0 0.00 0.00 0.00 31 1017.4
20260501224104 84 77 2.0 6.0 0.00 0.00 0.00 32 1017.4
20260501223604 84 77 2.0 6.0 0.00 0.00 0.00 31 1017.5
20260501223104 84 77 2.0 6.0 0.00 0.00 0.00 31 1017.5
20260501222604 83 77 2.0 6.0 0.00 0.00 0.00 32 1017.5
20260501222104 84 77 2.0 6.0 0.00 0.00 0.00 31 1017.5
20260501221604 83 77 2.0 6.0 0.00 0.00 0.00 31 1017.5
20260501221104 84 77 2.0 6.0 0.00 0.00 0.00 31 1017.5
20260501220604 84 77 2.0 6.0 0.00 0.00 0.00 31 1017.5
20260501220104 83 77 2.0 6.0 0.00 0.00 0.00 31 1017.6
20260501215604 83 77 2.0 6.0 0.00 0.00 0.00 32 1017.7
20260501215104 83 77 2.0 6.0 0.00 0.00 0.00 31 1017.6
20260501214604 83 77 2.0 6.0 0.00 0.00 0.00 31 1017.7
20260501214104 84 77 2.0 6.0 0.00 0.00 0.00 31 1017.7
20260501213604 84 77 2.0 6.0 0.00 0.00 0.00 31 1017.7
20260501213104 83 77 2.0 6.0 0.00 0.00 0.00 31 1017.7
20260501211604 84 77 2.0 6.0 0.00 0.00 0.00 31 1017.8
20260501210604 84 77 2.0 6.0 0.00 0.00 0.00 31 1017.9
20260501205604 84 77 2.0 6.0 0.00 0.00 0.00 30 1018.0
20260501205104 83 77 2.0 6.0 0.00 0.00 0.00 32 1018.1
20260501204604 83 77 2.0 6.0 0.00 0.00 0.00 31 1018.1
20260501204104 83 77 2.0 6.0 0.00 0.00 0.00 32 1018.1
20260501203604 83 77 2.0 6.0 0.00 0.00 0.00 31 1018.1
20260501203104 83 77 2.0 6.0 0.00 0.00 0.00 32 1018.3
20260501202604 83 77 2.0 6.0 0.00 0.00 0.00 31 1018.3
20260501202104 83 77 2.0 6.0 0.00 0.00 0.00 31 1018.4
20260501200105 82 77 2.0 6.0 0.00 0.00 0.00 32 1018.7
20260501195604 82 77 2.0 6.0 0.00 0.00 0.00 32 1018.7
20260501195104 82 77 2.0 6.0 0.00 0.00 0.00 32 1018.8